CAPE
8 14 16 15 20 27 31 30 27 45 67 25 58 40 41 64 92 169 129 90 54 93 80 118 43 13 9 6 4 0 29 1 136 241 112 32 0 131 15 12 7 0 0 3 5 0 0
14 16 16 14 18 22 22 20 29 38 43 25 40 24 20 33 21 100 68 47 35 40 83 100 111 71 26 2 1 247 133 28 171 146 115 40 0 0 45 8 0 0 0 2 0 0 0
15 13 17 15 19 19 20 30 24 29 38 17 45 30 23 14 13 15 49 54 141 112 155 128 72 31 21 0 0 114 138 4 79 124 94 34 10 1 15 23 0 0 2 0 0 0 0
9 10 17 17 16 13 9 23 23 34 27 6 19 26 35 3 0 0 5 82 106 161 138 92 49 18 5 3 0 0 26 20 0 30 179 66 3 2 87 39 12 19 0 1 0 0 0
6 13 15 13 15 12 10 8 23 20 29 43 5 7 39 20 0 0 0 7 59 133 162 138 22 9 0 17 0 0 0 0 1 21 109 113 60 17 25 29 12 21 1 0 0 0 0
6 8 8 10 12 11 10 11 11 17 15 18 26 4 5 2 1 2 0 14 95 81 73 111 24 1 1 0 0 0 0 0 32 76 32 111 42 25 22 1 1 0 0 0 0 0 0
6 7 7 11 14 10 10 9 14 16 8 16 12 23 1 0 5 0 0 0 0 5 0 7 1 0 0 0 23 9 0 18 39 32 3 9 0 0 0 0 0 0 0 0 0 0 0
4 7 8 12 12 12 14 13 9 14 17 11 4 13 7 0 0 0 0 0 4 2 0 0 0 0 0 0 42 79 67 36 114 30 8 6 2 0 0 0 0 0 0 0 0 0 0
2 5 9 12 12 5 11 8 10 13 11 13 12 6 8 0 0 0 0 0 0 0 4 1 0 0 19 10 42 30 22 67 41 0 11 2 0 0 0 0 0 0 0 0 0 0 0
2 4 6 9 10 7 8 10 10 10 12 11 13 5 8 4 0 0 0 0 0 0 0 16 21 33 49 40 4 11 25 9 33 8 22 11 0 0 0 0 0 0 0 0 0 0 0
2 3 6 8 8 11 12 8 10 11 10 12 16 10 10 4 0 0 0 0 0 0 0 25 29 16 10 3 1 36 23 0 3 28 4 4 9 16 7 11 4 0 0 0 0 0 0
2 2 4 4 10 11 12 9 11 10 17 11 6 5 5 0 0 0 0 0 0 0 0 2 11 21 12 15 18 10 0 0 0 1 0 1 0 1 7 10 10 0 0 0 0 0 0
1 5 8 9 14 13 13 10 7 7 15 12 6 3 0 0 0 0 0 0 0 0 0 13 12 28 7 12 15 5 2 1 2 8 5 0 1 0 0 0 0 0 0 2 7 6 0
0 5 7 6 11 13 15 15 4 7 6 10 1 0 0 0 0 0 0 0 0 0 2 2 7 10 5 1 12 18 12 9 0 0 8 0 21 2 0 0 0 0 0 0 0 0 0
0 4 4 4 9 12 6 13 19 10 16 6 0 0 0 0 0 0 1 0 0 2 1 2 2 7 14 9 2 8 9 3 3 0 0 0 2 3 0 0 0 0 0 0 0 0 0
1 3 3 4 11 16 10 20 16 16 15 1 0 0 0 0 0 0 0 0 0 0 0 0 0 0 0 0 0 4 9 3 8 0 0 0 3 8 3 1 0 0 0 0 0 5 0
1 4 6 7 12 18 16 10 17 13 20 0 0 0 0 0 0 2 0 0 0 0 0 0 0 0 0 0 0 3 0 0 0 0 0 0 0 13 5 5 4 0 0 0 0 0 0
0 5 8 11 16 20 9 8 15 15 15 0 0 0 0 0 0 1 0 0 0 0 0 0 0 0 0 0 0 0 0 0 0 0 0 0 0 5 1 2 0 0 0 0 0 1 0
0 5 5 12 13 17 10 8 10 10 5 0 0 0 0 0 6 0 0 0 0 0 0 0 0 0 0 0 0 0 0 0 0 0 0 0 0 0 1 0 2 5 0 0 0 0 0
0 1 4 4 7 13 13 8 4 0 0 0 0 0 0 0 0 0 0 0 0 0 0 0 0 0 0 0 0 0 0 0 0 0 0 0 0 0 0 0 0 0 0 0 0 0 0
0 0 1 4 7 14 10 7 2 0 0 0 0 0 0 0 0 0 0 2 0 0 0 0 0 0 0 0 0 0 0 0 0 0 0 0 0 0 0 0 0 0 0 0 0 0 0
0 0 0 6 6 9 8 8 3 0 0 0 0 0 0 0 0 0 0 1 3 3 0 0 0 0 0 0 0 0 0 0 0 0 0 0 0 0 0 0 0 0 0 0 0 0 0
0 0 0 11 10 8 3 4 4 0 0 0 0 0 0 0 0 0 0 0 0 2 7 0 0 0 0 3 0 0 0 0 0 0 0 0 0 0 0 0 0 0 0 0 0 0 0
0 0 1 16 9 9 6 2 2 4 0 0 0 0 0 0 0 0 0 0 0 0 0 0 1 6 0 0 0 0 0 0 0 0 0 0 0 0 0 0 0 0 0 0 0 0 0
0 0 21 23 2 2 0 2 0 0 2 0 0 0 0 0 0 0 0 0 0 0 0 1 5 0 0 0 0 0 0 0 0 0 0 0 0 0 0 0 0 0 0 0 0 0 0
0 6 23 10 0 0 2 3 2 0 1 0 0 0 0 0 0 0 0 0 0 0 0 0 0 0 0 1 11 8 7 1 0 0 0 0 1 0 0 0 0 0 0 0 0 0 0
0 3 6 0 0 1 6 9 23 4 13 0 5 0 0 0 0 0 0 0 0 0 0 0 0 0 0 0 9 4 1 0 0 0 0 3 0 0 0 1 0 0 0 0 0 0 0
0 0 2 4 3 8 9 7 7 1 0 0 0 0 0 0 0 0 0 0 0 0 0 0 0 0 0 17 2 0 0 0 0 0 0 0 0 0 0 3 0 0 0 0 0 0 0
0 0 1 11 7 10 19 10 13 0 8 3 5 0 0 6 0 0 0 0 0 0 0 0 0 0 8 5 5 1 0 0 0 0 0 0 0 0 0 0 0 0 0 0 0 0 0
CIN
-0 -0 -0 -0 -0 0 -0 -0 -0 -0 -0 0 0 -0 -0 -0 -0 0 -3 -0 -6 -4 -5 -2 -20 -16 -5 0 0 0 -8 -4 -15 -21 -13 -26 0 -5 -56 -71 -30 -14 0 -44 -68 0 0
0 0 -0 0 -0 -0 -0 -0 -0 -0 0 0 0 0 0 0 -1 -5 -5 -7 -12 -15 -0 -0 -1 -7 -1 0 -3 -26 -57 -5 -11 -11 -11 -23 0 0 -25 -56 0 0 0 -49 0 0 0
0 0 0 0 0 -0 0 0 0 0 0 0 0 0 0 0 -2 -20 -6 -9 -8 -10 -3 -3 -6 -4 -16 0 -11 -19 -27 -37 -15 -25 -27 -25 -17 -1 -29 -20 0 0 -7 -2 0 0 0
0 0 -0 -0 -0 0 0 -0 0 0 0 0 0 0 -0 0 0 0 -37 -3 -7 -9 -10 -9 -16 -31 -69 -98 0 0 -28 -25 0 -14 -22 -47 -17 -30 -15 -30 -37 -15 0 -7 0 0 0
-0 -0 -0 0 -0 0 -0 0 0 0 -0 0 0 0 -0 -0 0 0 0 -44 -27 -12 -7 -10 -47 -78 0 -10 0 0 0 -2 -15 -22 -24 -19 -34 -18 -9 -10 -18 -13 -6 0 0 0 0
-0 0 -0 -0 0 -0 -0 -0 0 -0 0 0 0 0 0 0 0 -28 0 -33 -25 -35 -25 -4 -29 -0 -16 0 0 0 0 0 -3 -0 -0 -11 -21 -7 -7 -7 -1 0 0 0 0 0 0
0 0 0 0 0 -0 0 0 0 0 0 0 0 0 -0 0 -0 -0 0 0 0 -25 0 -1 -2 0 0 0 -21 -62 0 -19 -2 -2 -2 -41 -0 0 0 0 0 0 0 0 0 0 0
0 -0 0 -0 -0 0 -0 0 -0 0 -0 0 -0 0 0 0 0 0 0 0 -1 -4 0 0 0 0 0 0 -8 -41 -26 0 -1 -0 -1 -1 -3 0 0 0 0 0 0 0 0 0 0
-0 0 -0 -0 -0 0 0 0 0 0 -0 0 0 -0 0 0 0 0 0 0 0 0 0 -15 0 0 -8 -22 -6 -20 -2 -8 -11 0 -0 -1 0 0 0 0 0 0 0 0 0 0 0
-0 -0 0 0 0 0 -0 -0 0 0 0 -0 0 -0 -0 0 0 0 0 0 0 0 0 -1 -6 -3 -1 -5 -13 -29 -22 -1 -1 0 -2 -16 -1 0 -1 0 0 0 0 0 0 0 0
0 0 0 -0 0 -0 0 0 0 -0 0 0 0 0 -1 0 0 0 0 0 -0 -0 0 -11 0 -8 -2 0 -0 -0 -2 -5 -0 -3 -1 -2 -13 -12 -9 -23 -13 0 0 -4 0 0 0
0 0 0 0 0 0 -0 -0 0 -0 0 0 0 -0 -0 0 0 0 0 0 0 0 0 0 0 0 0 0 -1 -2 -0 0 0 -5 0 0 0 -22 -19 -61 -35 0 0 0 0 0 0
0 -0 -0 0 -0 -0 -0 0 0 0 0 0 0 0 -1 0 0 0 0 0 0 0 0 -1 -0 -0 -0 0 0 -0 -0 -0 -3 -0 -0 0 0 0 -1 0 0 0 0 -13 -11 -7 0
0 -0 -0 0 -0 -0 -0 -0 0 0 0 0 0 0 0 0 0 -12 0 0 0 0 -1 -11 -0 -16 -3 -0 -0 0 0 0 0 0 -0 0 0 0 0 0 0 -0 0 0 0 0 0
0 -0 0 0 0 0 0 0 -0 0 0 0 0 0 0 0 0 0 0 0 0 -39 -0 -12 -9 -4 -0 -0 0 -0 0 0 -0 -0 0 0 0 0 0 0 0 0 0 0 0 0 0
0 -0 -0 0 -0 0 0 0 0 0 0 0 0 0 0 0 0 0 0 0 0 -11 0 0 0 0 -1 0 0 -0 0 -1 -0 -2 0 0 0 0 0 -0 0 0 0 0 0 -30 0
-0 -0 0 -0 0 0 0 0 0 0 0 0 0 0 0 0 0 0 -0 0 0 0 0 0 0 0 -8 0 -5 -17 0 0 0 0 0 0 0 0 0 0 -0 0 0 0 0 0 0
0 0 -0 -0 0 0 0 0 0 0 0 0 0 0 0 0 0 -28 0 0 0 0 0 0 0 0 0 0 0 0 0 0 0 0 0 0 0 0 -1 -0 0 0 0 0 -1 -1 0
0 0 0 0 0 0 0 0 0 0 0 0 0 0 0 0 -9 0 0 0 0 0 0 0 0 0 0 0 0 0 0 0 0 0 0 0 0 0 0 0 0 0 0 0 0 0 0
0 -0 0 -0 -0 -0 0 -0 0 0 0 0 0 0 0 0 0 0 0 0 0 0 0 0 0 0 0 0 0 0 0 0 0 0 0 0 0 0 0 0 0 0 0 0 0 0 0
0 0 -0 0 -0 0 -0 0 0 0 0 0 0 0 0 0 0 0 0 -4 0 -2 0 0 0 0 0 0 0 0 0 0 0 0 0 0 0 0 0 0 0 0 0 0 0 0 0
0 0 0 0 0 0 0 0 0 0 0 0 0 0 0 0 0 0 0 -55 -12 -7 0 -0 0 0 0 0 0 0 0 0 0 0 0 0 0 0 0 0 0 0 0 0 0 0 0
0 0 -0 0 -0 -0 0 0 -0 0 0 0 0 0 0 0 0 0 0 0 0 -7 -8 0 0 -4 0 -17 0 0 0 0 0 0 0 0 0 0 0 0 0 0 0 0 0 0 0
0 0 0 -0 0 0 0 0 0 0 0 0 0 0 0 0 0 0 0 0 0 0 0 0 -5 -17 0 0 0 0 0 0 0 0 0 0 0 0 0 0 0 0 0 0 0 0 0
0 0 -0 -0 -0 -0 0 0 -0 0 -3 0 0 0 0 0 0 0 0 0 0 0 0 -0 -32 -10 0 0 0 0 0 0 0 0 0 0 -11 0 0 0 0 0 0 0 0 0 0
0 -0 0 -0 0 0 -0 0 0 -0 -2 0 0 0 0 0 0 0 0 0 0 0 0 0 0 0 0 -42 -11 -9 -10 -9 0 -10 0 -1 -7 0 -1 -0 0 0 0 0 0 0 0
0 -0 -1 0 0 0 -0 0 -0 0 -0 0 -13 0 0 0 0 0 0 0 0 0 0 0 0 0 0 -1 -5 -11 -4 0 0 0 0 -4 -1 -3 -4 -9 0 0 0 0 0 0 0
0 0 -8 -16 -18 -10 -5 -3 -1 -0 0 0 -1 0 0 0 0 0 0 0 0 0 0 0 0 0 0 -3 -10 -8 0 0 0 0 0 0 0 0 -7 -5 0 0 0 0 0 0 0
0 0 -8 -11 -17 -14 -12 -6 -2 0 -0 -4 -6 0 0 -1 0 0 0 0 0 0 0 0 0 0 0 0 0 0 -12 0 0 0 0 0 0 0 0 0 0 0 0 0 0 0 0
Wind_Speed
16 17 18 19 20 19 21 22 21 24 25 26 27 24 21 16 12 8 4 4 5 2 2 4 6 6 3 2 9 17 15 28 19 17 17 12 13 7 7 6 8 4 3 10 7 11 8
16 18 19 19 20 21 20 21 22 23 24 25 26 22 20 16 11 7 4 4 4 1 2 1 5 9 2 4 9 12 10 16 15 18 15 11 13 10 5 11 8 8 8 5 4 8 8
16 17 17 18 19 19 21 21 21 22 23 24 24 23 20 17 14 10 6 4 4 2 1 1 1 3 4 12 3 7 6 2 6 15 12 9 6 13 6 6 6 2 12 7 4 3 5
15 16 17 18 18 19 20 20 21 22 22 20 21 22 19 16 13 10 7 5 3 1 2 1 2 3 6 7 5 5 2 5 4 7 12 10 5 8 4 3 4 5 6 5 11 10 5
14 16 17 17 18 19 19 19 20 21 21 21 17 18 19 16 13 11 8 6 5 5 3 4 2 2 6 8 2 4 4 6 3 5 8 7 6 5 2 7 3 5 5 5 6 11 5
13 14 15 16 17 18 19 20 19 19 19 19 18 16 16 15 14 11 11 9 6 1 4 6 6 2 4 7 4 1 2 6 5 18 7 6 5 6 5 6 16 14 13 9 8 9 7
12 14 15 16 17 18 19 20 19 19 19 18 18 16 15 15 13 15 6 3 4 2 1 0 3 4 7 8 4 4 0 2 5 8 6 5 10 19 18 6 6 6 7 5 7 7 7
11 13 14 15 17 18 19 19 19 19 19 19 17 16 13 14 14 14 4 4 3 3 5 1 3 4 3 1 1 7 6 5 6 6 16 4 8 5 9 6 7 5 8 8 1 6 11
10 12 13 15 16 17 18 19 19 19 19 18 17 16 14 10 11 4 3 2 2 4 1 5 2 4 2 1 3 4 2 2 6 4 14 8 7 8 9 7 8 6 6 4 6 3 3
10 11 12 14 16 17 18 19 21 20 20 18 17 17 14 8 4 3 2 6 2 1 1 4 1 4 1 2 5 2 2 1 3 14 8 5 3 11 8 9 6 5 5 3 12 5 4
9 11 13 15 15 18 20 21 22 23 22 21 20 18 12 3 2 1 3 3 4 1 4 5 3 3 6 7 3 3 3 5 7 6 4 1 3 5 6 3 2 6 7 7 5 5 4
9 11 13 15 16 18 20 23 24 24 23 22 22 19 8 2 2 2 4 1 2 2 5 1 5 4 5 9 2 5 3 4 1 6 10 5 3 5 2 2 2 4 9 8 5 4 2
8 11 13 15 17 18 20 22 24 25 25 25 25 17 4 1 4 5 4 1 3 6 1 4 4 5 3 3 3 2 3 3 3 7 3 4 4 2 4 6 7 4 7 2 2 2 7
8 10 13 16 17 19 20 22 25 26 27 26 28 17 7 5 5 6 2 1 9 4 1 2 3 3 3 4 2 4 6 3 2 5 4 4 3 1 1 3 3 9 3 6 7 6 5
7 10 13 16 18 20 22 23 24 26 25 28 21 1 3 4 6 4 2 5 6 3 3 1 3 2 4 5 5 4 1 5 4 4 5 5 2 1 2 2 2 5 4 2 3 1 4
7 10 13 16 19 20 22 24 25 27 26 27 3 3 2 6 7 3 2 4 3 3 3 2 3 2 1 4 3 5 3 1 4 3 4 5 6 1 3 1 2 2 1 2 3 2 4
7 10 13 16 17 19 20 24 27 28 28 22 2 3 3 6 4 1 2 3 3 2 2 2 4 2 2 2 1 3 5 6 8 5 5 6 5 3 5 5 5 3 0 2 3 5 4
7 10 13 15 17 19 21 23 26 28 27 8 3 2 3 3 1 3 3 4 2 3 2 3 1 3 4 1 2 4 4 2 8 8 7 3 5 4 2 4 9 1 5 5 5 4 3
6 9 12 14 16 18 20 24 26 27 22 2 3 3 0 2 1 2 2 2 0 2 1 2 1 1 2 2 3 5 4 3 5 3 6 5 2 4 1 2 4 4 5 3 3 2 4
4 8 11 14 16 18 20 22 26 28 26 3 2 4 4 1 4 2 1 4 3 2 1 1 1 2 1 1 1 3 3 1 2 2 1 3 4 6 8 6 6 6 11 11 5 3 3
3 7 10 13 16 18 19 21 24 28 27 5 4 2 1 4 5 7 4 3 2 2 1 2 1 3 2 3 3 4 3 2 2 0 2 3 4 3 3 3 3 4 7 15 11 7 8
1 5 9 12 14 16 18 20 21 25 22 5 3 4 4 4 4 5 6 7 5 5 3 1 1 5 3 3 2 1 7 4 4 1 3 2 1 3 3 4 4 4 7 8 12 12 7
1 4 8 10 13 13 15 19 19 21 14 4 4 4 1 6 5 3 5 6 7 5 4 4 4 3 2 0 2 1 2 4 8 8 5 4 5 3 3 3 1 8 15 15 8 7 15
1 3 6 8 11 13 13 16 19 17 13 3 1 1 3 4 4 4 8 9 10 9 3 6 5 1 4 6 4 4 5 5 6 5 6 5 4 3 3 3 2 7 1 9 17 8 11
1 4 6 5 8 11 11 14 15 16 16 4 2 3 3 3 5 6 11 5 7 7 1 2 5 3 5 4 2 2 2 4 4 5 4 4 4 2 3 4 7 3 3 5 8 9 13
2 4 6 3 6 8 11 11 11 12 13 3 1 1 2 1 2 5 4 4 4 5 5 5 4 6 5 2 1 3 3 4 2 2 2 2 4 4 2 2 5 2 2 2 2 5 1
0 3 3 1 4 8 10 11 7 8 10 3 2 2 2 2 3 4 2 3 4 4 3 2 7 7 4 2 1 2 3 3 4 5 4 2 1 4 4 3 7 6 3 3 3 4 2
1 2 1 1 3 5 8 9 10 9 7 4 1 3 1 1 6 2 4 3 5 3 2 5 2 3 3 1 1 2 2 5 2 5 7 7 5 4 4 4 8 3 3 4 3 2 2
3 1 3 4 2 3 5 6 6 7 7 2 1 0 1 2 5 3 7 8 4 0 1 4 1 1 3 2 3 3 3 1 5 3 2 3 8 5 8 7 6 5 3 1 3 4 2
Wind_Direction
358 358 2 4 2 2 355 359 357 352 353 357 351 355 357 347 345 343 354 2 343 14 131 159 135 110 93 163 256 274 305 190 190 191 196 193 176 186 178 171 176 228 161 222 223 129 169
358 359 4 0 5 0 0 360 356 357 3 4 4 10 12 15 10 28 38 37 22 39 100 109 190 178 226 248 250 7 27 166 188 184 189 196 189 179 204 181 177 175 236 264 287 154 194
360 359 5 360 5 3 0 1 358 359 10 7 7 19 27 31 30 32 38 49 60 70 71 43 286 251 235 247 314 29 54 26 247 189 183 197 183 190 155 163 212 260 200 225 109 167 218
0 1 6 360 1 1 5 3 357 359 9 14 10 12 12 18 24 29 29 3 15 1 338 353 267 301 263 262 263 254 32 108 13 287 214 207 194 197 135 211 123 167 98 139 182 187 207
1 1 4 359 358 3 1 4 360 358 4 5 7 2 4 3 10 11 1 329 306 288 276 261 275 224 279 320 317 250 139 97 252 204 247 235 193 186 146 118 84 128 167 168 184 181 152
1 358 2 359 359 2 360 3 3 358 358 1 2 3 354 352 355 351 341 331 320 323 233 222 252 338 268 325 319 41 85 92 288 163 229 181 156 134 164 156 185 181 182 185 182 192 172
358 354 360 359 359 1 1 1 3 358 355 358 353 1 351 347 342 353 8 11 18 3 335 313 246 240 299 335 311 67 199 41 234 150 150 228 156 191 182 139 109 119 134 154 203 199 164
355 352 356 357 0 0 359 360 359 358 357 352 352 346 355 336 334 337 358 74 63 260 311 41 326 279 234 188 294 165 95 230 198 133 162 115 179 165 139 160 206 189 174 213 20 194 180
347 349 354 356 356 356 356 358 354 356 354 351 349 337 334 330 327 344 88 69 333 357 311 305 288 281 26 128 80 122 330 283 160 92 175 132 152 161 160 199 197 220 179 202 158 84 35
341 343 351 349 351 352 352 350 347 350 349 347 343 338 319 320 327 189 171 153 246 307 319 12 314 28 51 278 85 103 25 30 138 170 135 84 357 179 179 205 176 214 214 164 134 114 194
336 340 348 343 348 350 350 347 344 344 346 343 339 335 313 257 270 269 165 177 207 100 76 335 63 10 42 14 207 67 108 250 107 98 134 127 95 97 152 192 201 228 132 117 115 103 77
337 341 341 341 346 350 349 345 344 342 341 339 338 329 295 249 172 177 146 358 74 74 25 296 162 159 170 209 169 106 65 29 158 68 48 65 2 37 57 41 39 108 82 54 52 80 356
340 340 344 342 343 353 347 344 341 342 340 337 333 330 234 219 176 139 99 70 46 59 250 357 58 146 111 118 110 104 99 78 111 133 110 50 8 12 9 64 354 62 99 52 16 5 222
343 340 344 346 347 350 344 344 341 341 341 337 331 326 211 203 172 115 99 162 63 263 323 157 130 173 103 153 80 127 128 101 59 88 112 139 153 346 323 116 191 188 164 162 187 194 219
342 347 350 350 348 347 345 344 344 340 341 338 333 58 160 221 147 102 158 50 176 218 359 254 229 236 134 134 126 128 77 157 194 208 126 138 114 237 37 18 210 169 234 216 97 293 80
351 352 353 350 352 350 347 344 343 342 341 337 314 295 144 142 124 112 81 131 187 250 323 267 287 281 76 154 159 172 157 187 135 225 217 163 100 191 117 276 261 205 151 109 14 220 237
357 354 355 355 356 352 351 346 347 345 344 339 53 7 205 137 118 190 123 203 182 223 350 41 349 351 36 112 260 186 132 196 145 209 217 155 112 116 121 216 189 136 180 261 144 160 201
1 352 357 356 354 356 354 350 351 350 349 30 357 64 211 122 171 155 137 211 334 156 200 268 305 5 6 90 322 67 130 103 143 171 159 215 121 129 209 174 204 265 173 194 141 234 223
7 355 358 359 358 360 358 352 351 350 358 337 350 270 346 40 316 78 212 120 116 152 132 10 166 31 23 336 90 107 83 346 40 90 157 167 81 108 95 201 168 215 205 199 99 72 223
7 6 4 6 5 4 3 358 352 350 351 94 45 7 321 79 318 319 21 179 167 151 172 55 333 338 268 53 105 134 110 37 24 83 138 118 152 161 191 209 144 195 186 190 153 175 200
36 14 13 10 8 8 5 1 358 352 352 94 21 33 34 328 345 323 324 5 177 165 257 150 235 231 272 192 149 127 103 99 1 303 33 96 148 126 254 138 125 183 185 191 194 201 182
65 15 9 6 9 15 13 9 6 1 355 74 76 34 333 277 294 321 343 355 39 28 20 99 289 305 269 50 48 66 135 157 193 198 165 46 184 87 311 236 169 244 238 219 223 218 254
75 12 358 3 10 14 10 12 14 13 16 58 338 336 327 285 337 28 12 346 351 28 45 34 319 325 26 63 331 73 158 178 161 151 178 120 123 85 265 154 284 293 221 214 214 201 212
129 358 354 2 6 15 20 18 17 21 30 103 270 331 17 308 18 37 10 353 355 342 297 309 332 17 348 327 313 19 36 92 143 168 146 133 121 117 203 37 254 246 159 195 211 221 211
199 312 327 2 4 23 26 22 23 19 21 74 350 56 55 322 326 3 356 338 320 328 280 274 25 322 320 355 96 84 359 358 206 173 169 159 141 151 137 207 277 261 229 186 171 248 208
237 324 358 34 4 8 16 17 17 24 14 40 60 134 76 81 339 328 321 341 347 334 343 7 8 329 23 36 312 198 195 185 210 192 200 219 159 132 193 224 251 290 240 229 90 284 202
24 2 35 32 5 13 14 11 9 3 356 33 344 46 57 349 282 16 353 316 324 342 296 342 343 350 20 34 276 222 229 155 180 185 165 164 109 186 243 247 280 253 207 122 141 258 315
133 69 26 237 25 19 15 28 22 21 39 61 321 39 78 289 283 314 26 342 332 328 320 329 326 26 360 265 207 245 202 237 190 193 173 164 170 189 194 225 267 184 92 181 214 13 83
176 174 246 254 332 358 16 1 9 3 359 88 80 101 2 229 261 315 284 250 224 235 35 332 333 311 38 285 16 308 305 293 183 238 141 186 186 188 178 212 231 210 227 190 159 143 156